Location: Newark
(24.4500°N, 54.3833°E)
Time: 18:08:31
(UTC+00:00)

OTV 5 (USA 277) - Visible Passes

Search period start: 15 September 2019 00:00
Search period end: 25 September 2019 00:00
Orbit: 295 x 339 km, 54.5° (Epoch: 08 September)

Date Brightness Start Highest point End Pass type
(mag) Time Alt. Az. Time Alt. Az. Time Alt. Az.
15 Sep ? 15:36:58 10° N 15:38:15 20° NNE 15:38:15 20° NNE visible
16 Sep ? 15:51:13 10° NW 15:52:56 35° WNW 15:52:56 35° WNW visible
17 Sep ? 16:06:59 10° W 16:07:48 12° WSW 16:07:48 12° WSW visible
18 Sep ? 14:46:03 10° NNW 14:48:35 58° NE 14:51:05 10° SE visible
19 Sep ? 15:00:53 10° WNW 15:03:02 24° SW 15:05:11 10° S visible
